Regional Weather Roundup
Issued by NWS Little Rock, AR

Home | Current Version | Previous Version | Text Only | Print | Product List | Glossary Off
Versions: 1 2 3 4 5 6 7 8 9 10 11 12 13 14 15 16 17 18 19 20 21 22 23 24 25 26 27 28 29 30 31 32 33 34 35 36 37 38 39 40 41 42 43 44 45 46 47 48 49 50

000
ASUS44 KLZK 220805
RWRLZK

WEATHER ROUNDUP FOR ARKANSAS
NATIONAL WEATHER SERVICE LITTLE ROCK AR
200 AM CST SAT NOV 22 2014

NOTE: "FAIR" INDICATES FEW OR NO CLOUDS BELOW 12,000 FEET WITH NO
SIGNIFICANT WEATHER AND/OR OBSTRUCTIONS TO VISIBILITY.

ARZ001-003-010-029-220900-
NORTHWEST ARKANSAS

CITY           SKY/WX    TMP DP  RH WIND       PRES   REMARKS
FAYETTEVILLE   PTCLDY    51  47  86 S15G23    30.14F
FORT SMITH     CLOUDY    49  46  90 E8        30.17S
HARRISON       MOCLDY    50  47  89 SE8       30.17S
BENTONVILLE    CLOUDY    54  46  76 S12G17    30.15F
ROGERS         CLOUDY    55  47  74 S16       30.14F
SILOAM SPGS    CLOUDY    54  45  71 S10G16    30.14F
HIGHFILL       CLOUDY    54  48  80 S15       30.13F
$$

ARZ004-005-016-220900-
NORTH CENTRAL ARKANSAS

CITY           SKY/WX    TMP DP  RH WIND       PRES   REMARKS
BATESVILLE     CLOUDY    39  37  93 SE7       30.22F VSB<1/4
FLIPPIN        CLOUDY    43  37  81 E5        30.20S VSB 3/4
MTN HOME       CLOUDY    43  42  97 E7        30.19S FOG
$$

ARZ040-041-220900-
WEST CENTRAL ARKANSAS

CITY           SKY/WX    TMP DP  RH WIND       PRES   REMARKS
MENA           CLOUDY    59  50  72 SE7       30.18S
MOUNT IDA      LGT RAIN  53  51  93 NE5       30.17F
$$

ARZ009-017-025-026-028-220900-
NORTHEAST ARKANSAS

CITY           SKY/WX    TMP DP  RH WIND       PRES   REMARKS
CORNING        FAIR      39  39 100 NE5       30.24S FOG
JONESBORO      MOCLDY    44  42  93 CALM      30.25S
NEWPORT        MOCLDY    41  41 100 CALM      30.24F FOG
WALNUT RIDGE   PTCLDY    39  36  87 N5        30.23F
BLYTHEVILLE    CLOUDY    59  44  57 S13       30.27S
$$

ARZ022-023-033-042-044-220900-
CENTRAL ARKANSAS

CITY           SKY/WX    TMP DP  RH WIND       PRES   REMARKS
LITTLE ROCK    MOCLDY    47  44  90 CALM      30.24S FOG
N LITTLE ROCK    N/A     50  49  98 S7        30.24S
JACKSONVILLE   MOCLDY    46  45  98 CALM      30.23S
SEARCY         MOCLDY    43  43 100 N5        30.25S FOG
HOT SPRINGS    CLOUDY    51  49  92 E5        30.22F
RUSSELLVILLE   CLOUDY    49  47  93 CALM      30.20F FOG
CLINTON        CLOUDY    45  45 100 CALM      30.24F FOG
$$

ARZ036-220900-
EAST ARKANSAS

CITY           SKY/WX    TMP DP  RH WIND       PRES   REMARKS
WEST MEMPHIS   CLOUDY    53  49  86 S10       30.25F
$$

ARZ050-053-066-070-073-220900-
SOUTHWEST ARKANSAS

CITY           SKY/WX    TMP DP  RH WIND       PRES   REMARKS
ARKADELPHIA    PTSUNNY   52  52 100 N5        30.23R
CAMDEN         MOCLDY    55  48  76 NE5       30.22F
TEXARKANA      LGT RAIN  55  51  86 S9        30.19S
EL DORADO      CLOUDY    58  49  72 SE9       30.22F
DE QUEEN       CLOUDY    55  53  93 E3        30.18S FOG
$$

ARZ056-057-069-220900-
SOUTHEAST ARKANSAS

CITY           SKY/WX    TMP DP  RH WIND       PRES   REMARKS
PINE BLUFF     CLOUDY    52  48  86 SE7       30.24S
STUTTGART      CLOUDY    52  48  87 SE9       30.25S
MONTICELLO     CLOUDY    56  48  74 S6        30.25F

$$





USA.gov is the U.S. government's official web portal to all federal, state and local government web resources and services.